Location: Novokuznetsk
(53.7500°N, 87.1000°E)
Time: 00:15:25
(UTC+06:00)

ISS - Pass Details

Date: 20 May 2021
Orbit: 417 x 422 km, 51.6° (Epoch: 16 June)

Event Time Altitude Azimuth Distance (km) Brightness Sun altitude
Rises 00:40:53 0° 278° (W) 2,372 0.1 -16.0°
Reaches altitude 10° 00:43:09 10° 266° (W) 1,506 -1.1 -15.9°
Enters shadow 00:44:29 19° 250° (WSW) 1,079 -2.0 -15.9°
